PLI301 SPJC-SLLP

Flight info

Callsign PLI301
Flight time 1h 20m
Altitude 35000
Route KULIS UM415 JUL UM657 ELAKO
Aircraft R722/M-SDFGRWY/S

Departure

Time 2026-04-21 22:34
Airport Jorge Chávez International Airport (SPJC)

Arrival

Time 2026-04-21 23:54
Airport El Alto International Airport (SLLP)
Time Latitude Longitude Altitude Speed Heading
2026-04-21 22:18 -12.02824 -77.10735 95 ft 0 kts 122°
2026-04-21 22:23 -12.02817 -77.10746 95 ft 4 kts 122°
2026-04-21 22:23 -12.02807 -77.10762 97 ft 4 kts 122°
2026-04-21 22:23 -12.02794 -77.10785 95 ft 4 kts 112°
2026-04-21 22:24 -12.02791 -77.10809 95 ft 4 kts 78°
2026-04-21 22:24 -12.02808 -77.10836 97 ft 2 kts 41°
2026-04-21 22:24 -12.02813 -77.10840 97 ft 0 kts 41°
2026-04-21 22:28 -12.02810 -77.10838 97 ft 1 kts 32°
2026-04-21 22:28 -12.02778 -77.10841 97 ft 10 kts 338°
2026-04-21 22:28 -12.02703 -77.10872 95 ft 12 kts 338°
2026-04-21 22:28 -12.02629 -77.10914 95 ft 13 kts 333°
2026-04-21 22:29 -12.02543 -77.10959 95 ft 15 kts 323°
2026-04-21 22:29 -12.02483 -77.11047 98 ft 16 kts 300°
2026-04-21 22:29 -12.02393 -77.11122 96 ft 18 kts 335°
2026-04-21 22:29 -12.02274 -77.11180 93 ft 20 kts 335°
2026-04-21 22:30 -12.02137 -77.11246 87 ft 23 kts 334°
2026-04-21 22:30 -12.01984 -77.11324 84 ft 26 kts 335°
2026-04-21 22:30 -12.01816 -77.11405 80 ft 27 kts 334°
2026-04-21 22:30 -12.01644 -77.11492 71 ft 28 kts 334°
2026-04-21 22:31 -12.01469 -77.11577 72 ft 28 kts 334°
2026-04-21 22:31 -12.01293 -77.11665 67 ft 28 kts 333°
2026-04-21 22:31 -12.01113 -77.11753 63 ft 29 kts 335°
2026-04-21 22:31 -12.00929 -77.11843 59 ft 30 kts 333°
2026-04-21 22:32 -12.00758 -77.11927 62 ft 18 kts 335°
2026-04-21 22:32 -12.00677 -77.12004 61 ft 16 kts 281°
2026-04-21 22:32 -12.00723 -77.12101 57 ft 16 kts 204°
2026-04-21 22:32 -12.00800 -77.12111 55 ft 7 kts 175°
2026-04-21 22:33 -12.00843 -77.12099 55 ft 6 kts 154°
2026-04-21 22:33 -12.01001 -77.12019 58 ft 55 kts 154°
2026-04-21 22:33 -12.01549 -77.11748 61 ft 119 kts 154°
2026-04-21 22:33 -12.02466 -77.11295 94 ft 170 kts 156°
2026-04-21 22:34 -12.03656 -77.10772 342 ft 196 kts 158°
2026-04-21 22:34 -12.04893 -77.10235 1220 ft 187 kts 157°
2026-04-21 22:34 -12.06014 -77.09732 2192 ft 165 kts 152°
2026-04-21 22:34 -12.06957 -77.09150 2905 ft 153 kts 148°
2026-04-21 22:35 -12.07830 -77.08583 3490 ft 147 kts 148°
2026-04-21 22:35 -12.08698 -77.08023 4061 ft 149 kts 147°
2026-04-21 22:35 -12.09644 -77.07418 4434 ft 171 kts 148°
2026-04-21 22:35 -12.10801 -77.06957 4841 ft 188 kts 168°
2026-04-21 22:36 -12.13469 -77.05887 5482 ft 234 kts 152°
2026-04-21 22:36 -12.15021 -77.05083 5725 ft 266 kts 154°
2026-04-21 22:36 -12.15521 -77.04837 5838 ft 272 kts 154°
2026-04-21 22:37 -12.17102 -77.04070 7192 ft 243 kts 154°
2026-04-21 22:37 -12.18691 -77.03295 7576 ft 274 kts 154°
2026-04-21 22:37 -12.20479 -77.02412 7789 ft 301 kts 154°
2026-04-21 22:38 -12.22384 -77.01484 8611 ft 293 kts 149°
2026-04-21 22:38 -12.23913 -77.00302 10145 ft 275 kts 137°
2026-04-21 22:38 -12.25139 -76.98674 10226 ft 305 kts 120°
2026-04-21 22:38 -12.26144 -76.96666 10440 ft 326 kts 115°
2026-04-21 22:39 -12.27095 -76.94567 11145 ft 325 kts 115°
2026-04-21 22:39 -12.28096 -76.92460 11675 ft 334 kts 116°
2026-04-21 22:39 -12.29199 -76.90341 12220 ft 339 kts 121°
2026-04-21 22:39 -12.30506 -76.88317 12854 ft 341 kts 124°
2026-04-21 22:40 -12.31845 -76.86292 13365 ft 346 kts 122°
2026-04-21 22:40 -12.33107 -76.84194 13991 ft 347 kts 121°
2026-04-21 22:40 -12.34368 -76.82065 14499 ft 351 kts 121°
2026-04-21 22:40 -12.35674 -76.79950 15014 ft 353 kts 122°
2026-04-21 22:41 -12.36980 -76.77847 15559 ft 356 kts 121°
2026-04-21 22:41 -12.38294 -76.75692 16054 ft 358 kts 121°
2026-04-21 22:41 -12.39618 -76.73517 16581 ft 360 kts 121°
2026-04-21 22:41 -12.40954 -76.71337 17087 ft 363 kts 121°
2026-04-21 22:42 -12.42300 -76.69141 17604 ft 366 kts 121°
2026-04-21 22:42 -12.43538 -76.66857 18109 ft 367 kts 115°
2026-04-21 22:42 -12.44600 -76.64467 18507 ft 371 kts 112°
2026-04-21 22:42 -12.45704 -76.62064 18863 ft 374 kts 116°
2026-04-21 22:43 -12.46902 -76.59728 19268 ft 377 kts 117°
2026-04-21 22:43 -12.48119 -76.57338 19660 ft 379 kts 116°
2026-04-21 22:43 -12.49287 -76.54912 20057 ft 382 kts 115°
2026-04-21 22:43 -12.50466 -76.52467 20484 ft 384 kts 116°
2026-04-21 22:44 -12.51676 -76.50020 20975 ft 387 kts 117°
2026-04-21 22:44 -12.52896 -76.47556 21436 ft 388 kts 116°
2026-04-21 22:44 -12.54112 -76.45075 21861 ft 390 kts 116°
2026-04-21 22:44 -12.55331 -76.42575 22174 ft 394 kts 116°
2026-04-21 22:45 -12.56564 -76.40064 22569 ft 396 kts 116°
2026-04-21 22:45 -12.57805 -76.37538 22938 ft 399 kts 116°
2026-04-21 22:45 -12.59050 -76.34991 23396 ft 401 kts 116°
2026-04-21 22:45 -12.60305 -76.32425 23777 ft 405 kts 117°
2026-04-21 22:46 -12.61559 -76.29879 24159 ft 406 kts 117°
2026-04-21 22:46 -12.62830 -76.27284 24541 ft 408 kts 116°
2026-04-21 22:46 -12.64099 -76.24682 24940 ft 410 kts 116°
2026-04-21 22:46 -12.65379 -76.22064 25322 ft 412 kts 117°
2026-04-21 22:47 -12.66669 -76.19432 25751 ft 414 kts 117°
2026-04-21 22:47 -12.67963 -76.16789 26129 ft 416 kts 116°
2026-04-21 22:47 -12.69260 -76.14132 26519 ft 418 kts 117°
2026-04-21 22:47 -12.70564 -76.11464 26886 ft 420 kts 117°
2026-04-21 22:48 -12.71878 -76.08777 27196 ft 424 kts 117°
2026-04-21 22:48 -12.73202 -76.06062 27606 ft 426 kts 117°
2026-04-21 22:48 -12.74528 -76.03347 28041 ft 426 kts 117°
2026-04-21 22:48 -12.75859 -76.00622 28390 ft 430 kts 116°
2026-04-21 22:49 -12.77200 -75.97876 28710 ft 432 kts 116°
2026-04-21 22:49 -12.78530 -75.95146 29082 ft 434 kts 116°
2026-04-21 22:49 -12.79885 -75.92367 29508 ft 435 kts 116°
2026-04-21 22:49 -12.81244 -75.89580 29834 ft 438 kts 116°
2026-04-21 22:50 -12.82611 -75.86778 30016 ft 441 kts 116°
2026-04-21 22:50 -12.83983 -75.83959 30279 ft 442 kts 116°
2026-04-21 22:50 -12.85362 -75.81126 30563 ft 443 kts 116°
2026-04-21 22:50 -12.86742 -75.78292 30801 ft 444 kts 116°
2026-04-21 22:51 -12.88107 -75.75490 30959 ft 446 kts 116°
2026-04-21 22:51 -12.89492 -75.72643 31151 ft 446 kts 116°
2026-04-21 22:51 -12.90876 -75.69794 31342 ft 446 kts 116°
2026-04-21 22:51 -12.92267 -75.66935 31483 ft 448 kts 116°
2026-04-21 22:52 -12.93659 -75.64077 31626 ft 449 kts 116°
2026-04-21 22:52 -12.95051 -75.61206 31883 ft 449 kts 116°
2026-04-21 22:52 -12.96445 -75.58333 32081 ft 449 kts 115°
2026-04-21 22:52 -12.97825 -75.55498 32243 ft 451 kts 115°
2026-04-21 22:53 -12.99227 -75.52609 32435 ft 452 kts 115°
2026-04-21 22:53 -13.00628 -75.49718 32658 ft 453 kts 115°
2026-04-21 22:53 -13.02031 -75.46825 32847 ft 454 kts 115°
2026-04-21 22:53 -13.03439 -75.43925 33020 ft 454 kts 115°
2026-04-21 22:54 -13.06262 -75.38098 33277 ft 456 kts 115°
2026-04-21 22:54 -13.07673 -75.35186 33518 ft 455 kts 114°
2026-04-21 22:54 -13.09080 -75.32284 33738 ft 454 kts 114°
2026-04-21 22:55 -13.10483 -75.29383 33955 ft 453 kts 114°
2026-04-21 22:55 -13.11883 -75.26487 34164 ft 452 kts 114°
2026-04-21 22:55 -13.13284 -75.23592 34360 ft 452 kts 114°
2026-04-21 22:55 -13.14680 -75.20706 34538 ft 452 kts 114°
2026-04-21 22:56 -13.16058 -75.17854 34696 ft 451 kts 114°
2026-04-21 22:56 -13.17453 -75.14971 34858 ft 451 kts 114°
2026-04-21 22:56 -13.18853 -75.12071 35050 ft 450 kts 114°
2026-04-21 22:56 -13.20243 -75.09194 35217 ft 450 kts 114°
2026-04-21 22:57 -13.21631 -75.06316 35386 ft 450 kts 114°
2026-04-21 22:57 -13.23024 -75.03427 35337 ft 455 kts 115°
2026-04-21 22:57 -13.25831 -74.97612 35379 ft 460 kts 115°
2026-04-21 22:58 -13.28707 -74.91644 35383 ft 472 kts 115°
2026-04-21 22:58 -13.31631 -74.85574 35378 ft 474 kts 115°
2026-04-21 22:59 -13.34562 -74.79483 35368 ft 474 kts 115°
2026-04-21 22:59 -13.37469 -74.73437 35364 ft 474 kts 115°
2026-04-21 23:00 -13.40391 -74.67363 35368 ft 473 kts 114°
2026-04-21 23:00 -13.43299 -74.61298 35355 ft 474 kts 114°
2026-04-21 23:01 -13.46207 -74.55248 35363 ft 473 kts 114°
2026-04-21 23:01 -13.49118 -74.49170 35349 ft 474 kts 114°
2026-04-21 23:02 -13.52028 -74.43096 35347 ft 473 kts 114°
2026-04-21 23:02 -13.54949 -74.36996 35345 ft 479 kts 114°
2026-04-21 23:03 -13.57914 -74.30802 35321 ft 488 kts 114°
2026-04-21 23:03 -13.60920 -74.24509 35335 ft 499 kts 114°
2026-04-21 23:04 -13.64015 -74.18036 35296 ft 509 kts 114°
2026-04-21 23:04 -13.67161 -74.11438 35291 ft 516 kts 114°
2026-04-21 23:05 -13.70326 -74.04809 35262 ft 516 kts 114°
2026-04-21 23:05 -13.73484 -73.98175 35251 ft 517 kts 114°
2026-04-21 23:06 -13.76657 -73.91517 35217 ft 518 kts 114°
2026-04-21 23:06 -13.79816 -73.84865 35211 ft 518 kts 114°
2026-04-21 23:07 -13.82968 -73.78247 35206 ft 517 kts 114°
2026-04-21 23:07 -13.86129 -73.71581 35203 ft 518 kts 114°
2026-04-21 23:08 -13.89301 -73.64905 35183 ft 518 kts 114°
2026-04-21 23:08 -13.92435 -73.58283 35180 ft 517 kts 114°
2026-04-21 23:09 -13.95601 -73.51613 35196 ft 518 kts 114°
2026-04-21 23:09 -13.98752 -73.44941 35180 ft 518 kts 114°
2026-04-21 23:10 -14.01909 -73.38277 35194 ft 517 kts 114°
2026-04-21 23:10 -14.04524 -73.32736 35183 ft 518 kts 114°
2026-04-21 23:11 -14.07675 -73.26060 35172 ft 518 kts 114°
2026-04-21 23:11 -14.10832 -73.19379 35156 ft 519 kts 115°
2026-04-21 23:12 -14.13965 -73.12723 35153 ft 519 kts 114°
2026-04-21 23:12 -14.17121 -73.06026 35140 ft 518 kts 114°
2026-04-21 23:13 -14.20269 -72.99335 35155 ft 519 kts 114°
2026-04-21 23:13 -14.23413 -72.92648 35159 ft 517 kts 115°
2026-04-21 23:14 -14.26552 -72.85965 35162 ft 517 kts 115°
2026-04-21 23:14 -14.29668 -72.79327 35177 ft 518 kts 115°
2026-04-21 23:15 -14.32797 -72.72651 35177 ft 517 kts 114°
2026-04-21 23:15 -14.35926 -72.65972 35164 ft 517 kts 114°
2026-04-21 23:16 -14.39060 -72.59279 35164 ft 517 kts 115°
2026-04-21 23:16 -14.42204 -72.52555 35138 ft 521 kts 115°
2026-04-21 23:17 -14.45335 -72.45857 35140 ft 522 kts 115°
2026-04-21 23:17 -14.48479 -72.39119 35112 ft 521 kts 115°
2026-04-21 23:18 -14.51628 -72.32371 35114 ft 521 kts 115°
2026-04-21 23:18 -14.54773 -72.25621 35149 ft 521 kts 115°
2026-04-21 23:19 -14.57897 -72.18911 35123 ft 521 kts 114°
2026-04-21 23:19 -14.61040 -72.12154 35123 ft 521 kts 114°
2026-04-21 23:20 -14.64177 -72.05405 35115 ft 521 kts 114°
2026-04-21 23:20 -14.67324 -71.98626 35151 ft 521 kts 114°
2026-04-21 23:21 -14.70446 -71.91899 35138 ft 521 kts 114°
2026-04-21 23:21 -14.73572 -71.85152 35141 ft 519 kts 114°
2026-04-21 23:22 -14.76698 -71.78399 35147 ft 520 kts 114°
2026-04-21 23:22 -14.79821 -71.71652 35147 ft 520 kts 114°
2026-04-21 23:23 -14.82923 -71.64941 35128 ft 520 kts 114°
2026-04-21 23:23 -14.86038 -71.58193 35127 ft 520 kts 114°
2026-04-21 23:24 -14.89154 -71.51445 35132 ft 520 kts 114°
2026-04-21 23:24 -14.92261 -71.44699 35133 ft 520 kts 114°
2026-04-21 23:25 -14.95374 -71.37943 35134 ft 520 kts 114°
2026-04-21 23:25 -14.98464 -71.31223 35134 ft 520 kts 114°
2026-04-21 23:26 -15.01569 -71.24470 35163 ft 520 kts 114°
2026-04-21 23:26 -15.04682 -71.17691 35164 ft 520 kts 114°
2026-04-21 23:27 -15.07781 -71.10934 35162 ft 520 kts 114°
2026-04-21 23:27 -15.10861 -71.04209 35205 ft 520 kts 114°
2026-04-21 23:28 -15.13689 -70.97327 35201 ft 519 kts 110°
2026-04-21 23:28 -15.16444 -70.90417 35212 ft 519 kts 112°
2026-04-21 23:29 -15.19265 -70.83551 35198 ft 517 kts 110°
2026-04-21 23:29 -15.22013 -70.76665 35245 ft 517 kts 111°
2026-04-21 23:30 -15.24948 -70.69911 35226 ft 518 kts 116°
2026-04-21 23:30 -15.28392 -70.63342 35229 ft 518 kts 115°
2026-04-21 23:31 -15.31531 -70.56615 35196 ft 518 kts 115°
2026-04-21 23:31 -15.34865 -70.49987 35216 ft 518 kts 115°
2026-04-21 23:32 -15.38049 -70.43337 35176 ft 518 kts 115°
2026-04-21 23:32 -15.41332 -70.36677 35177 ft 518 kts 115°
2026-04-21 23:33 -15.44562 -70.29998 35494 ft 519 kts 115°
2026-04-21 23:33 -15.47833 -70.23307 35159 ft 520 kts 115°
2026-04-21 23:34 -15.51084 -70.16600 35120 ft 520 kts 115°
2026-04-21 23:34 -15.54326 -70.09937 35121 ft 520 kts 115°
2026-04-21 23:35 -15.57578 -70.03227 35108 ft 520 kts 115°
2026-04-21 23:35 -15.60829 -69.96525 35108 ft 520 kts 115°
2026-04-21 23:36 -15.64079 -69.89810 35096 ft 520 kts 115°
2026-04-21 23:36 -15.67326 -69.83105 35098 ft 518 kts 115°
2026-04-21 23:37 -15.70560 -69.76410 35084 ft 519 kts 115°
2026-04-21 23:37 -15.73784 -69.69738 35086 ft 520 kts 115°
2026-04-21 23:38 -15.77029 -69.63008 35087 ft 520 kts 115°
2026-04-21 23:38 -15.80274 -69.56278 35082 ft 520 kts 115°
2026-04-21 23:39 -15.83509 -69.49561 35080 ft 519 kts 115°
2026-04-21 23:39 -15.86739 -69.42843 35078 ft 519 kts 115°
2026-04-21 23:40 -15.89950 -69.36167 35074 ft 519 kts 115°
2026-04-21 23:40 -15.93324 -69.29526 35076 ft 521 kts 121°
2026-04-21 23:41 -15.97614 -69.23448 35095 ft 522 kts 128°
2026-04-21 23:41 -15.99890 -69.20497 34909 ft 523 kts 126°
2026-04-21 23:41 -16.01991 -69.17472 34669 ft 503 kts 123°
2026-04-21 23:42 -16.03944 -69.14541 34175 ft 487 kts 124°
2026-04-21 23:42 -16.05940 -69.11740 33515 ft 478 kts 126°
2026-04-21 23:42 -16.07949 -69.09019 32884 ft 471 kts 126°
2026-04-21 23:42 -16.09877 -69.06305 32278 ft 460 kts 124°
2026-04-21 23:43 -16.11711 -69.03647 31381 ft 449 kts 124°
2026-04-21 23:43 -16.13593 -69.00972 29494 ft 467 kts 126°
2026-04-21 23:43 -16.15536 -68.98273 27991 ft 470 kts 126°
2026-04-21 23:43 -16.17478 -68.95546 26541 ft 469 kts 125°
2026-04-21 23:44 -16.19406 -68.92794 24957 ft 471 kts 125°
2026-04-21 23:44 -16.21345 -68.90038 23288 ft 474 kts 126°
2026-04-21 23:44 -16.23308 -68.87277 21735 ft 470 kts 126°
2026-04-21 23:44 -16.25206 -68.84602 21078 ft 446 kts 126°
2026-04-21 23:45 -16.26977 -68.82081 20832 ft 417 kts 126°
2026-04-21 23:45 -16.30235 -68.77464 20408 ft 384 kts 126°
2026-04-21 23:45 -16.31799 -68.75253 20281 ft 373 kts 126°
2026-04-21 23:46 -16.33314 -68.73101 20170 ft 362 kts 126°
2026-04-21 23:46 -16.34786 -68.71010 20050 ft 356 kts 126°
2026-04-21 23:46 -16.36251 -68.68934 19948 ft 355 kts 126°
2026-04-21 23:46 -16.37711 -68.66863 19854 ft 353 kts 126°
2026-04-21 23:47 -16.39160 -68.64806 19758 ft 351 kts 126°
2026-04-21 23:47 -16.40588 -68.62779 19637 ft 351 kts 126°
2026-04-21 23:47 -16.42044 -68.60712 19355 ft 355 kts 126°
2026-04-21 23:47 -16.43518 -68.58618 19055 ft 360 kts 126°
2026-04-21 23:48 -16.44997 -68.56516 18725 ft 359 kts 126°
2026-04-21 23:48 -16.46461 -68.54435 18264 ft 353 kts 126°
2026-04-21 23:48 -16.47901 -68.52388 17753 ft 346 kts 126°
2026-04-21 23:48 -16.49306 -68.50374 17251 ft 340 kts 126°
2026-04-21 23:49 -16.50683 -68.48391 16752 ft 335 kts 126°
2026-04-21 23:49 -16.52035 -68.46448 16475 ft 322 kts 125°
2026-04-21 23:49 -16.53027 -68.44476 16470 ft 294 kts 102°
2026-04-21 23:49 -16.53048 -68.42491 16724 ft 269 kts 75°
2026-04-21 23:50 -16.52432 -68.40693 16534 ft 257 kts 66°
2026-04-21 23:50 -16.51650 -68.39011 15874 ft 260 kts 65°
2026-04-21 23:50 -16.51005 -68.37314 15507 ft 240 kts 75°
2026-04-21 23:50 -16.50760 -68.35663 15296 ft 224 kts 90°
2026-04-21 23:51 -16.50833 -68.34096 15092 ft 206 kts 95°
2026-04-21 23:51 -16.50922 -68.32690 14917 ft 185 kts 92°
2026-04-21 23:51 -16.50954 -68.31345 14790 ft 187 kts 91°
2026-04-21 23:51 -16.51002 -68.30035 14658 ft 174 kts 92°
2026-04-21 23:52 -16.51042 -68.28756 14523 ft 179 kts 90°
2026-04-21 23:52 -16.51072 -68.27458 14309 ft 179 kts 92°
2026-04-21 23:52 -16.51130 -68.26171 14092 ft 177 kts 91°
2026-04-21 23:52 -16.51150 -68.24873 13860 ft 182 kts 91°
2026-04-21 23:53 -16.51202 -68.23570 13591 ft 184 kts 92°
2026-04-21 23:53 -16.51248 -68.22228 13343 ft 187 kts 90°
2026-04-21 23:53 -16.51279 -68.20878 13177 ft 185 kts 91°
2026-04-21 23:53 -16.51308 -68.19664 13261 ft 147 kts 92°
2026-04-21 23:54 -16.51344 -68.18759 13295 ft 95 kts 93°
2026-04-21 23:54 -16.51332 -68.18330 13302 ft 42 kts 73°
2026-04-21 23:54 -16.51254 -68.18174 13310 ft 18 kts 50°
2026-04-21 23:54 -16.51197 -68.18103 13325 ft 8 kts 49°
2026-04-21 23:55 -16.51176 -68.18078 13325 ft 1 kts 46°
2026-04-21 23:55 -16.51172 -68.18075 13326 ft 0 kts 46°
2026-04-21 23:55 -16.51136 -68.18034 13331 ft 14 kts 47°
2026-04-21 23:55 -16.51065 -68.17956 13337 ft 15 kts 46°
2026-04-21 23:56 -16.51012 -68.17911 13339 ft 3 kts 346°
2026-04-21 23:56 -16.50999 -68.17924 13339 ft 1 kts 280°
2026-04-21 23:56 -16.51000 -68.17933 13339 ft 3 kts 259°
2026-04-21 23:56 -16.51000 -68.17972 13339 ft 9 kts 271°
2026-04-21 23:57 -16.50977 -68.18011 13339 ft 5 kts 346°
2026-04-21 23:57 -16.50944 -68.18013 13339 ft 1 kts